[[{"header":{"parameterUnit":"m.s-1","parameterCategory":1,"la1":30.2992,"la2":30.254,"lo1":-89.0895,"lo2":-89.0443,"dy":0.0025,"dx":0.0025,"nx":19,"ny":19,"refTime":"2026-05-18T21:00:00:Z","depth":0,"parameterNumber":2,"parameterNumberName":"U-component_of_WINDS"},"data":[0,0,0,-1.2913,-1.2912,-1.2819,-1.2818,-1.272,-1.2719,0,0,0,0,0,0,0,0,0,0,0,-1.2954,-1.2954,-1.2913,-1.2912,-1.2819,-1.2818,-1.272,-1.2719,0,0,0,0,0,0,0,0,0,0,0,-1.2954,-1.2954,-1.2953,-1.2911,-1.2819,-1.2818,-1.272,-1.2783,0,0,0,0,0,0,0,0,0,0,-1.2869,-1.292,-1.2954,-1.2953,-1.2911,-1.2819,-1.2818,-1.2785,-1.2779,-1.2771,0,-1.2768,0,-1.2743,-1.2714,-1.2714,0,0,0,-1.2901,-1.2925,-1.2889,-1.2953,-1.291,-1.2819,-1.2858,-1.2782,-1.2774,-1.2763,-1.2767,-1.2762,-1.2741,-1.2714,-1.2713,-1.2705,-1.2706,0,0,-1.2907,-1.2944,-1.2894,-1.2885,-1.2901,-1.2861,-1.2855,-1.2777,-1.2783,-1.2766,-1.276,-1.2739,-1.2713,-1.2712,-1.2705,-1.2706,0,0,0,-1.2928,-1.2948,-1.2913,-1.2889,-1.2871,-1.2858,-1.2852,-1.2787,-1.2772,-1.2758,-1.2738,-1.2713,-1.2712,-1.2704,-1.2705,-1.2764,0,0,0,-1.2931,-1.296,-1.2915,-1.2937,-1.2873,-1.2828,-1.2864,-1.2778,-1.2768,-1.2739,-1.2713,-1.2711,-1.2704,-1.2705,-1.2761,-1.2785,0,0,0,-1.2955,-1.2963,-1.2954,-1.2939,-1.2901,-1.2828,-1.2809,-1.2775,-1.2756,-1.2714,-1.2711,-1.2704,-1.2705,-1.2759,-1.278,-1.2794,0,0,0,-1.2992,-1.3006,-1.2956,-1.2963,-1.2902,-1.2866,-1.2809,-1.2779,-1.2751,-1.2712,-1.2704,-1.2705,-1.2758,-1.2778,-1.2792,-1.2812,-1.2825,0,0,-1.303,-1.3012,-1.3013,-1.2966,-1.2948,-1.2877,-1.2867,-1.2804,-1.2766,-1.2728,-1.2727,-1.2762,-1.278,-1.2794,-1.288,-1.289,0,0,0,-1.3038,-1.304,-1.3027,-1.3002,-1.2956,-1.2919,-1.2854,-1.2832,-1.2798,-1.2754,-1.277,-1.2779,-1.2786,-1.2794,-1.2802,-1.2806,-1.2711,-1.271,-1.271,-1.3144,-1.3096,-1.3096,-1.3037,-1.3014,-1.2949,-1.2926,-1.2884,-1.284,-1.2845,-1.2833,-1.2891,-1.2902,-1.2908,-1.2913,-1.284,-1.284,-1.284,-1.2841,-1.3195,-1.319,-1.3135,-1.3115,-1.3065,-1.3047,-1.2986,-1.2956,-1.2932,-1.2896,-1.2899,-1.2863,-1.2921,-1.2922,-1.2845,-1.2844,-1.2843,-1.2843,-1.2843,-1.3259,-1.3248,-1.3222,-1.3183,-1.3159,-1.3098,-1.308,-1.3033,-1.299,-1.2993,-1.2976,-1.2975,-1.2968,-1.2989,-1.2989,-1.2989,-1.2989,-1.2989,-1.2989,-1.3335,-1.3303,-1.3293,-1.3248,-1.3228,-1.3195,-1.3132,-1.311,-1.3074,-1.3042,-1.3042,-1.2999,-1.2936,-1.2921,-1.2992,-1.2992,-1.2991,-1.2991,-1.2991,-1.3404,-1.3382,-1.3366,-1.3346,-1.329,-1.327,-1.3213,-1.3173,-1.3149,-1.3141,-1.3098,-1.3059,-1.3036,-1.3029,-1.3017,-1.3108,-1.3108,-1.3108,-1.3108,-1.3457,-1.3442,-1.3417,-1.3388,-1.3355,-1.3302,-1.3287,-1.324,-1.3186,-1.3169,-1.3149,-1.3129,-1.3124,-1.3104,-1.3095,-1.3082,-1.3188,-1.3188,-1.3188,-1.3497,-1.3477,-1.3473,-1.3422,-1.3376,-1.3338,-1.3323,-1.3292,-1.3227,-1.3191,-1.3154,-1.315,-1.3117,-1.3109,-1.307,-1.3058,-1.3034,0,0]},{"header":{"parameterUnit":"m.s-1","parameterCategory":1,"la1":30.2992,"la2":30.254,"lo1":-89.0895,"lo2":-89.0443,"dy":0.0025,"dx":0.0025,"nx":19,"ny":19,"refTime":"2026-05-18T21:00:00:Z","depth":0,"parameterNumber":3,"parameterNumberName":"V-component_of_WINDS"},"data":[0,0,0,2.184,2.1839,2.1808,2.1808,2.1746,2.1746,0,0,0,0,0,0,0,0,0,0,0,2.1839,2.1838,2.184,2.1839,2.1808,2.1808,2.1747,2.1746,0,0,0,0,0,0,0,0,0,0,0,2.1839,2.1838,2.1837,2.1839,2.1808,2.1808,2.1747,2.1777,0,0,0,0,0,0,0,0,0,0,2.1811,2.18,2.1838,2.1837,2.1838,2.1808,2.1808,2.1779,2.1775,2.1752,0,2.1731,0,2.1738,2.174,2.174,0,0,0,2.1846,2.1803,2.1805,2.1837,2.1838,2.1808,2.1824,2.1777,2.1773,2.1747,2.1731,2.1729,2.1737,2.174,2.174,2.1589,2.1588,0,0,2.1847,2.1827,2.1808,2.1801,2.1808,2.1825,2.1823,2.1775,2.1754,2.173,2.1728,2.1736,2.1739,2.1739,2.159,2.1589,0,0,0,2.1848,2.1827,2.1831,2.1803,2.18,2.1824,2.1821,2.1756,2.1759,2.1727,2.1735,2.1739,2.1738,2.1591,2.159,2.1518,0,0,0,2.1849,2.1828,2.1831,2.1818,2.18,2.1778,2.1803,2.1763,2.1758,2.1735,2.1739,2.1737,2.1592,2.159,2.1523,2.1487,0,0,0,2.1844,2.1827,2.182,2.1817,2.1803,2.178,2.178,2.1762,2.1762,2.174,2.1737,2.1593,2.1591,2.1527,2.1493,2.144,0,0,0,2.1832,2.1756,2.1818,2.1736,2.1803,2.1737,2.178,2.1732,2.1704,2.1739,2.1592,2.159,2.1528,2.1498,2.1444,2.139,2.1366,0,0,2.1724,2.1742,2.1695,2.175,2.1668,2.1743,2.165,2.1643,2.1659,2.1611,2.1608,2.1521,2.1494,2.1441,2.1244,2.1225,0,0,0,2.1654,2.162,2.1603,2.1577,2.1572,2.1564,2.1575,2.1573,2.1533,2.1631,2.1489,2.1474,2.1443,2.1418,2.1402,2.1376,2.1578,2.1578,2.1579,2.1469,2.1495,2.1419,2.1442,2.1416,2.1429,2.141,2.1409,2.1442,2.1408,2.1392,2.127,2.124,2.1228,2.1201,2.1368,2.1368,2.1368,2.1367,2.1311,2.1266,2.1314,2.1257,2.1285,2.1236,2.1245,2.127,2.1228,2.1284,2.1258,2.1314,2.1206,2.1184,2.1362,2.1363,2.1364,2.1364,2.1365,2.119,2.1173,2.1174,2.114,2.111,2.1136,2.1093,2.112,2.1145,2.112,2.1106,2.1107,2.1109,2.1112,2.1112,2.1111,2.1111,2.111,2.111,2.1064,2.1067,2.1029,2.1019,2.1006,2.0992,2.1005,2.0992,2.0984,2.1007,2.1007,2.1041,2.1192,2.1228,2.1104,2.1105,2.1106,2.1106,2.1107,2.089,2.0934,2.0875,2.0862,2.0852,2.0819,2.0856,2.0827,2.0821,2.0798,2.084,2.0948,2.0967,2.098,2.1009,2.0836,2.0836,2.0836,2.0836,2.0786,2.08,2.0746,2.0723,2.0705,2.0732,2.0662,2.0671,2.0686,2.0683,2.0713,2.0756,2.0768,2.078,2.0797,2.0825,2.0608,2.0608,2.0608,2.0679,2.0693,2.0629,2.0648,2.0641,2.0635,2.0569,2.0539,2.0566,2.0599,2.0681,2.069,2.076,2.0781,2.0813,2.0839,2.0891,0,0]}]]